Flag for Austria Weather past 2 weeks in Gänserndorf, Lower Austria, Austria

Now
56 °F

Partly sunny.


Feels Like: 54 °F
Forecast: 47 / 64 °F
Wind: 9 mph from Northwest

Location: Wien / Schwechat-Flughafen

Current Time: Apr 21, 2015 at 11:32:06 AM

Latest Report: Apr 21, 2015 at 11:00 AM


Visibility: 17 mi

Pressure: 30.26 "Hg

Humidity: 47%

Dew point: 36 °F

Location of GänserndorfLocation

Historic Weather in Gänserndorf — Graph

°F

Gänserndorf temperature yesterday

Maximum temperature yesterday: 63 °F (at 4:00 PM)
Minimum temperature yesterday: 36 °F (at 2:00 AM)
Average temperature yesterday: 52 °F

Past Weeks' High & Low Weather Summary

 TemperatureHumidityPressure
High77 °F (Apr 16, 1:00 PM)96% (Apr 17, 6:00 PM)30.50 "Hg (Apr 17, 6:00 PM)
Low31 °F (Apr 19, 7:00 AM)18% (Apr 16, 2:00 PM)29.80 "Hg (Apr 17, 4:00 PM)
Average52 °F56%30.21 "Hg
* Reported Apr 6 10:00 AM — Apr 21 10:00 AM, Gänserndorf, Weather by CustomWeather, © 2015

Note: Actual official high and low records may vary slightly from our data, if they occured in-between our weather recording intervals... More about our weather records

Advertising

Gänserndorf weather history for previous 24 hours

 ConditionsComfort  
Time TempWeatherWind HumidityBarometerVisibility
10:00 AM
Tue, Apr 21
52 °FOvercast.8 mph50%30.27 "Hg22 mi
9:00 AM49 °FOvercast.8 mph52%30.28 "Hg22 mi
8:00 AM48 °FPartly sunny.9 mph59%30.27 "Hg22 mi
7:00 AM46 °FScattered clouds.5 mph63%30.26 "Hg28 mi
6:00 AM46 °FPassing clouds.7 mph49%30.24 "Hg2 mi
5:00 AM47 °FPassing clouds.7 mph54%30.23 "Hg28 mi
4:00 AM50 °FClear.7 mph54%30.22 "Hg28 mi
3:00 AM51 °FPassing clouds.7 mph54%30.19 "Hg28 mi
2:00 AM52 °FPassing clouds.7 mph53%30.19 "Hg31 mi
1:00 AM53 °FPassing clouds.6 mph52%30.17 "Hg31 mi
12:00 AM54 °FPassing clouds.6 mph50%30.16 "Hg28 mi
11:00 PM
Mon, Apr 20
56 °FOvercast.6 mph46%30.14 "Hg28 mi
10:00 PM59 °FOvercast.8 mph40%30.13 "Hg28 mi
9:00 PM60 °FOvercast.8 mph38%30.11 "Hg28 mi
8:00 PM60 °FPassing clouds.9 mph37%30.08 "Hg31 mi
7:00 PM61 °FPartly sunny.10 mph35%30.06 "Hg25 mi
6:00 PM61 °FScattered clouds.10 mph35%30.05 "Hg22 mi
5:00 PM62 °FPassing clouds.10 mph36%30.05 "Hg17 mi
4:00 PM63 °FPassing clouds.13 mph36%30.05 "Hg19 mi
3:00 PM62 °FPassing clouds.13 mph36%30.06 "Hg19 mi
2:00 PM60 °FScattered clouds.13 mph39%30.08 "Hg16 mi
1:00 PM59 °FScattered clouds.13 mph41%30.10 "Hg12 mi
12:00 PM56 °FScattered clouds.10 mph46%30.13 "Hg16 mi
11:00 AM55 °FPassing clouds.10 mph49%30.14 "Hg14 mi
Weather by CustomWeather, © 2015

See weather overviewHow to use our weather pages